Flag for Argentina Weather past 2 weeks in Zárate, Buenos Aires, Argentina

Now
55 °F

Clear.


Feels Like: 55 °F
Forecast: 53 / 67 °F
Wind: 5 mph from East

Location: Buenos Aires Airport

Current Time: Jul 29, 2014 at 1:26:37 AM

Latest Report: Jul 29, 2014 at 1:00 AM


Visibility: 10 mi

Pressure: 30.18 "Hg

Humidity: 77%

Dew point: 48 °F

Location of ZárateLocation

Historic Weather in Zárate — Graph

°F

Zárate temperature yesterday

Maximum temperature yesterday: 59 °F (at 4:00 PM)
Minimum temperature yesterday: 46 °F (at 8:00 AM)
Average temperature yesterday: 53 °F

Past Weeks' High & Low Weather Summary

 TemperatureHumidityPressure
High68 °F (Jul 19, 5:00 PM)100% (Jul 14, 6:00 AM)30.42 "Hg (Jul 14, 6:00 AM)
Low39 °F (Jul 27, 6:00 AM)24% (Jul 24, 5:00 PM)29.74 "Hg (Jul 22, 10:00 AM)
Average55 °F70%30.10 "Hg
* Reported Midnight between Jul 13 and Jul 14 — Midnight between Jul 28 and Jul 29, Zárate, Weather by CustomWeather, © 2014

Note: Actual official high and low records may vary slightly from our data, if they occured in-between our weather recording intervals... More about our weather records

Advertising

Zárate weather history for previous 24 hours

 ConditionsComfort  
Time TempWeatherWind HumidityBarometerVisibility
12:00 AM
Jul 29
57 °FClear.7 mph67%30.21 "Hg10 mi
11:00 PM
Jul 28
57 °FClear.16 mph67%30.15 "Hg10 mi
10:00 PM57 °FClear.17 mph67%30.12 "Hg10 mi
8:00 PM57 °FClear.13 mph67%30.15 "Hg10 mi
7:00 PM59 °FPassing clouds.13 mph63%30.15 "HgN/A
6:00 PM59 °FClear.9 mph63%30.15 "Hg10 mi
5:00 PM59 °FSunny.9 mph63%30.15 "Hg10 mi
4:00 PM59 °FSunny.7 mph63%30.15 "Hg10 mi
3:00 PM57 °FSunny.9 mph63%30.18 "Hg10 mi
2:00 PM57 °FSunny.9 mph59%30.21 "Hg10 mi
1:00 PM55 °FSunny.12 mph63%30.27 "Hg10 mi
12:00 PM54 °FSunny.15 mph67%30.30 "Hg10 mi
11:00 AM52 °FSunny.17 mph72%30.33 "Hg10 mi
10:00 AM50 °FSunny.12 mph76%30.33 "Hg10 mi
9:00 AM50 °FSunny.15 mph71%30.33 "Hg10 mi
8:00 AM46 °FSunny.10 mph71%30.33 "Hg10 mi
7:00 AM48 °FSunny.13 mph71%30.33 "Hg10 mi
6:00 AM50 °FClear.13 mph62%30.33 "Hg10 mi
5:00 AM50 °FClear.15 mph62%30.33 "Hg10 mi
4:00 AM50 °FClear.17 mph62%30.33 "Hg10 mi
3:00 AM50 °FClear.16 mph62%30.33 "Hg10 mi
2:00 AM50 °FClear.12 mph62%30.36 "Hg10 mi
1:00 AM50 °FClear.12 mph62%30.36 "Hg10 mi
Weather by CustomWeather, © 2014

See weather overviewHow to use our weather pages